{"data":{"norad_id":40110,"intl_designator":"2014-047B","name":"YAOGAN-20 01B","alt_names":[],"object_type":"PAYLOAD","status":"ACTIVE","operator":null,"country":"PRC","launch_date":"2014-08-09","launch_site_code":"JSC","launch_vehicle":null,"mission":null,"orbit_class":"UNKNOWN","rcs_meters":2.4074,"size_class":null,"mass_kg":null,"dimensions":null,"purposes":[],"wikipedia_slug":null,"has_3d_model":false,"image_url":null,"decayed_at":null,"tle_current":{"epoch":"2026-05-25T04:09:14.570784Z","epoch_age_seconds":63607,"freshness":"FRESH","line1":"1 40110U 14047B   26145.17308531  .00000031  00000+0  13069-3 0  9993","line2":"2 40110  63.3790  79.3616 0388099  14.5703 346.6141 13.45437618579182","mean_motion":13.45437618,"eccentricity":0.0388099,"inclination_deg":63.379,"raan_deg":79.3616,"arg_perigee_deg":14.5703,"mean_anomaly_deg":346.6141,"bstar":0.00013069,"rev_number":57918,"period_min":107.02837357414,"perigee_km":799.28948407605,"apogee_km":1378.8942971184,"semimajor_km":7467.2288905972,"source":"CELESTRAK","updated_at":"2026-05-25T13:37:55.471693Z"}}}